Regional Weather Roundup
Issued by NWS

Home | Current Version | Previous Version | Text Only | Print | Product List | Glossary On
Versions: 1 2 3 4 5 6 7 8 9 10 11 12 13 14 15 16 17 18 19 20 21 22 23 24 25 26 27 28 29 30 31 32 33 34 35 36 37 38 39 40 41 42 43 44 45 46 47 48 49 50
000
ASUS43 KLMK 220110
RWRKY
KENTUCKY REGIONAL WEATHER ROUNDUP
NATIONAL WEATHER SERVICE LOUISVILLE KY
900 PM EDT TUE MAY 21 2019

NOTE "FAIR" INDICATES FEW OR NO CLOUDS BELOW 12,000 FEET
WITH NO SIGNIFICANT WEATHER AND/OR OBSTRUCTIONS TO VISIBILITY.

KYZ001>023-026-027-061>063-070>075-220200-
WESTERN AND SOUTH CENTRAL KENTUCKY

CITY           SKY/WX    TMP DP  RH WIND       PRES   REMARKS
PADUCAH        CLOUDY    81  64  56 S9        29.74R
HENDERSON      FAIR      80  68  66 E9        29.77S
OWENSBORO      FAIR      80  67  64 SE14      29.80S
HOPKINSVILLE   FAIR      83  64  51 SE9       29.80R
BOWLING GREEN  FAIR      79  63  57 SE7       29.84S
GLASGOW        FAIR      80  62  54 E5        29.87S
$$

KYZ024-025-028>034-038-045-046-053-220200-
NORTH CENTRAL KENTUCKY

CITY           SKY/WX    TMP DP  RH WIND       PRES   REMARKS
LOUISVILLE/SDF MOCLDY    73  58  59 E14       29.91S
LOUISVILLE/LOU FAIR      72  57  59 E9        29.91F
FORT KNOX      FAIR      72  60  65 E12       29.90R
$$

KYZ035>037-039>044-047>052-055>060-089>105-220200-
NORTHEAST KENTUCKY

CITY           SKY/WX    TMP DP  RH WIND       PRES   REMARKS
LEXINGTON      FAIR      70  54  56 E16       29.98S
COVINGTON      MOCLDY    65  47  52 E15       30.00S
FRANKFORT      FAIR      69  57  65 E8        29.95F
$$

KYZ054-064>069-076>088-106>120-220200-
SOUTHEAST KENTUCKY

CITY           SKY/WX    TMP DP  RH WIND       PRES   REMARKS
JACKSON        FAIR      66  57  72 CALM      30.03R
LONDON         FAIR      72  61  68 NE6       29.98R
SOMERSET       FAIR      72  57  60 E6        29.96S
MIDDLESBORO    FAIR      71  56  58 W3        29.99R
MONTICELLO     MOCLDY    76  63  64 VRB3      29.95
$$




USA.gov is the U.S. government's official web portal to all federal, state and local government web resources and services.